Orbital Elements at Epoch 2459000.5 (2020-May-31.0) TDB
Reference: JPL 13 (heliocentric ecliptic J2000)
Element | Value | Uncertainty (1-sigma) | Units |
e | .1080075688609309 | 5.6582e-08 | |
a | 2.727177972310781 | 2.0301e-08 | au |
q | 2.432622109670411 | 1.6267e-07 | au |
i | 7.220243457744367 | 4.5344e-06 | deg |
node | 94.6279663488468 | 5.5066e-05 | deg |
peri | 353.8103711712428 | 6.3987e-05 | deg |
M | 269.4637230979154 | 3.3694e-05 | deg |
tp | 2459414.203102520957 (2021-Jul-18.70310252) | 0.00015501 | TDB |
period | 1645.010398081825 4.50 | 1.8368e-05 5.029e-08 | d yr |
n | .2188436014871276 | 2.4436e-09 | deg/d |
Q | 3.021733834951152 | 2.2493e-08 | au |
|
| | Orbit Determination Parameters
Additional Information
|